Location: Eckmannshofen
(49.0907°N, 11.2268°E)
Time: 06:51:15
(UTC+00:00)

Daily predictions for brighter satellites

Satellite Brightness Start Highest point End
(mag) Time Altitude Azimuth Time Altitude Azimuth Time Altitude Azimuth
COSMO-SKYMED 1 3.8 16:27:38 10° NE 16:30:57 21° E 16:34:16 10° SE
H-2A R/B 4.2 16:28:00 10° S 16:31:31 43° W 16:35:04 10° NNW
CORIOLIS 4.1 16:26:41 10° SSE 16:32:00 73° ENE 16:37:22 10° NNW
FengYun 1-2 T 4.4 16:27:37 10° SSE 16:33:09 59° ENE 16:38:41 10° N
H-2A R/B 2.1 16:28:59 10° NNE 16:33:11 85° WNW 16:37:18 10° SSW
Cosmos 1110 Rocket 4.2 16:29:06 10° S 16:34:13 55° ESE 16:39:19 10° NNE
NOSS 2-2 (C) 4.5 16:31:43 10° NW 16:36:56 63° NE 16:44:10 10° SE
Lacrosse 5 2.9 16:34:15 10° W 16:38:58 38° NNW 16:43:42 10° NE
Timation 2 Rocket 4.1 16:32:57 10° NNW 16:39:31 71° ENE 16:46:19 10° SE
Cosmos 1825 Rocket 3.5 16:35:56 10° N 16:40:25 72° E 16:44:49 10° SSE
ADEOS Rocket 3.4 16:36:52 10° NNE 16:43:13 81° WNW 16:50:18 10° SSW
Envisat 3.9 16:38:27 10° S 16:43:25 56° W 16:48:28 10° NNW
Cosmos 292 Rocket 4.1 16:38:58 10° S 16:43:31 44° ESE 16:48:07 10° NE
Aureole 3 4.1 16:41:52 10° SE 16:44:11 19° E 16:46:24 10° NE
Meteor 2-21 Rocket 4.4 16:39:02 10° N 16:45:13 68° ENE 16:51:18 10° SSE
Okean O Rocket 1.9 16:41:08 10° S 16:45:30 75° WSW 16:49:53 10° NNW
FALCON 9 DEB 3.9 16:42:29 10° WNW 16:45:46 41° N 16:48:52 11° ENE
YAOGAN 1 3.7 16:44:10 10° ESE 16:47:32 23° ENE 16:50:56 10° NNE
ERBS 4.1 16:45:21 10° WNW 16:48:05 23° N 16:50:50 10° NE
USA 281 3.6 16:41:45 10° SSE 16:48:18 73° WSW 16:54:54 10° NNW
FALCON 9 DEB 3.9 16:45:33 10° SSW 16:48:29 33° SE 16:51:05 12° E
FALCON 9 DEB 3.7 16:49:44 10° SW 16:52:43 37° SE 16:55:10 14° E
Feng Yun 1-1 Rocket 4.4 16:47:59 10° SSE 16:53:50 68° ENE 16:59:43 10° N
CZ-2C R/B 4.0 16:48:48 10° SE 16:53:51 32° ENE 16:58:46 10° N
SMAP 3.7 16:49:48 10° S 16:54:24 62° WSW 16:59:03 10° NNW
Cosmos 2219 3.3 16:49:06 10° NNW 16:54:50 61° ENE 17:00:31 10° SE
Cosmos 1455 4.0 16:54:52 10° ESE 16:56:10 13° E 16:56:10 13° E
Cosmos 1726 Rocket 3.6 16:53:13 10° S 16:57:29 59° E 17:01:49 10° NNE
Cosmos 1943 Rocket 4.4 16:54:12 10° W 16:57:58 18° NW 17:01:43 10° N
Cosmos 1758 Rocket 4.3 16:54:49 10° NNW 16:59:10 57° W 17:03:25 10° S
Cosmos 1553 Rocket 4.5 16:54:45 10° SSE 17:00:31 39° E 17:06:15 10° NNE
USA 307 3.2 16:57:04 10° WNW 17:01:18 53° NNE 17:04:41 15° E
Cosmos 2082 4.3 16:58:05 10° NNW 17:03:21 36° NE 17:08:37 10° ESE
Meteor 2-10 Rocket 4.5 16:59:13 10° SE 17:03:28 25° E 17:07:38 10° NE
Cosmos 2228 3.0 17:00:18 10° S 17:04:33 89° W 17:08:52 10° N
FALCON 9 DEB 3.5 17:01:35 10° SW 17:04:41 44° SSE 17:06:44 18° E
CZ-4B R/B 1.2 17:01:55 10° NNE 17:05:11 90° W 17:08:20 10° SSW
Cosmos 1939 Rocket 2.8 17:01:26 10° SSE 17:05:19 59° ENE 17:09:11 10° N
USA 308 3.2 17:01:55 10° WNW 17:06:09 55° NNE 17:09:20 17° E
ATLAS 5 CENTAUR R/B 3.7 17:05:07 10° WNW 17:08:29 20° NNW 17:12:15 10° NNE
Helios 1A Rocket 3.1 17:08:31 10° SE 17:12:30 51° ENE 17:16:30 10° N
Cosmos 1606 Rocket 3.7 17:08:44 10° SSW 17:13:06 78° W 17:17:32 10° N
GENESIS II 4.5 17:12:08 10° SW 17:16:10 73° NW 17:20:07 11° NE
FALCON 9 DEB 3.1 17:13:08 10° SW 17:16:19 56° SSE 17:17:56 25° E
ARGOS 4.1 17:13:09 11° ESE 17:17:22 28° ENE 17:21:54 10° N
Okean-O 2.7 17:14:39 10° SSE 17:18:57 54° ENE 17:23:18 10° N
SKYMED 2 3.6 17:15:01 10° NNE 17:19:20 60° E 17:23:37 10° S
Cosmos 1689 Rocket 2.0 17:17:45 10° NNE 17:20:36 53° E 17:23:25 10° S
SL-08 R/B 4.4 17:15:12 10° N 17:21:22 64° ENE 17:27:25 10° SSE
Cosmos 1656 3.9 17:16:50 10° S 17:22:09 48° ESE 17:27:34 10° NE
Cosmos 1745 Rocket 4.2 17:18:24 10° N 17:24:32 51° ENE 17:30:40 10° SSE
Cosmos 1400 Rocket 2.8 17:20:44 10° S 17:24:49 70° E 17:28:54 10° NNE
H-2A R/B 2.6 17:21:48 10° SE 17:26:50 41° ENE 17:31:55 10° N
PSLV R/B 3.9 17:23:28 10° NNE 17:27:38 59° ESE 17:31:43 10° S
Ariane Rocket 4.4 17:27:38 18° ENE 17:27:49 18° NE 17:31:13 10° NNE
GEOS 3 Rocket 3.9 17:24:32 17° ESE 17:28:35 54° NE 17:33:51 10° NW
Cosmos 2227 Rocket 2.1 17:23:06 10° NNW 17:28:49 81° ENE 17:34:29 10° SSE
CZ-4 R/B 1.2 17:25:28 10° SSE 17:29:17 59° ENE 17:33:06 10° N
Cosmos 2058 3.1 17:25:23 10° N 17:29:20 44° ENE 17:33:15 10° SSE
Cosmos 1892 2.6 17:26:50 10° N 17:30:42 63° ENE 17:34:33 10° SSE
Cosmos 2263 Rocket 3.4 17:29:45 10° N 17:34:12 23° NE 17:35:33 21° ENE
Cosmos 1408 2.8 17:31:22 10° N 17:34:53 45° ENE 17:37:15 19° SE
CSL-04 Rocket 3.9 17:29:50 10° SE 17:35:08 48° ENE 17:40:24 10° N
BREEZE-M R/B 3.4 17:27:53 10° W 17:35:59 88° N 17:37:09 36° E
NOSS 3-4 (A) 4.3 17:34:05 10° NW 17:40:28 42° NNE 17:44:11 25° E
NOSS 3-4 (C) 4.3 17:34:12 10° NW 17:40:34 42° NNE 17:44:16 25° E
CZ-4C R/B 3.8 17:35:18 10° NW 17:40:54 29° NNE 17:44:25 20° ENE
Meteor 2-1 Rocket 4.3 17:36:28 10° SSE 17:41:43 47° E 17:46:59 10° NNE
Cosmos 1300 4.0 17:39:38 10° SSW 17:43:16 42° WNW 17:46:56 10° N
Cosmos 2058 Rocket 3.4 17:42:02 10° SSW 17:46:29 71° W 17:51:02 10° N
Cosmos 1697 Rocket 3.0 17:41:32 10° S 17:46:45 41° ESE 17:49:37 24° NE
SL-4 R/B 1.8 17:44:40 10° WNW 17:48:14 62° N 17:49:04 47° ENE
SeaSat 1 2.8 17:46:28 31° E 17:48:15 44° NE 17:52:57 10° NNW
CZ-2D R/B 3.7 17:44:31 10° S 17:48:17 63° W 17:52:04 10° NNW
Cosmos 1346 Rocket 2.6 17:45:38 10° N 17:49:39 77° ENE 17:53:38 10° SSE
NOSS 3-3 (A) 4.2 17:46:02 10° S 17:51:31 44° ESE 17:54:18 28° ENE
CRYOSAT 2 4.4 17:46:49 10° NNE 17:51:36 53° E 17:56:20 10° SSE
NOSS 3-3 (C) 4.2 17:46:08 10° S 17:51:38 44° ESE 17:54:24 28° ENE
Cosmos 1825 2.4 17:48:13 10° N 17:51:38 45° ENE 17:51:38 45° ENE
USA 305 2.8 17:47:47 10° WNW 17:52:06 84° NNE 17:53:27 43° ESE
Cosmos 1709 Rocket 4.2 17:48:07 10° N 17:54:18 50° ENE 17:59:42 14° SSE
USA 215 3.6 17:51:39 27° ENE 17:55:00 52° NNE 18:01:19 10° WNW
Cosmos 44 3.8 17:50:55 10° WSW 17:55:23 54° NW 17:59:04 16° NNE
Cosmos 1315 Rocket 2.8 17:52:08 10° S 17:55:59 53° E 17:56:20 51° ENE
SJ-11-01 4.1 17:53:43 12° SSE 17:58:01 69° ENE 18:02:41 10° N
USA 306 2.8 17:54:11 10° WNW 17:58:30 90° NNW 17:59:35 50° ESE
BREEZE-M R/B 3.7 17:58:03 10° W 18:02:08 89° SSW 18:05:18 34° ESE
ATLAS 2AS CENTAUR R/B 3.3 17:55:20 10° NW 18:02:39 45° NNE 18:05:17 33° ENE
Cosmos 968 Rocket 3.9 17:58:55 10° NNW 18:04:06 64° WSW 18:09:12 10° S
Cosmos 1340 4.4 18:00:58 10° NNW 18:04:25 34° W 18:07:51 10° SSW
HJ-1C 4.3 18:07:28 38° N 18:07:28 38° N 18:09:41 10° N
COSMO-SKYMED 1 3.6 18:03:11 10° N 18:07:22 46° WNW 18:11:31 10° SW
MOS 1 Rocket 3.2 18:03:35 10° NNE 18:08:13 65° E 18:13:07 10° S
Cosmos 2297 Rocket 3.3 18:03:10 10° NW 18:08:32 45° WSW 18:13:52 10° S
Cosmos 1980 Rocket 3.3 18:04:28 10° S 18:07:19 26° SSE 18:07:19 26° SSE
Cosmos 1076 Rocket 3.3 18:05:22 10° N 18:09:38 86° E 18:11:35 32° SSE
Cosmos 883 Rocket 4.4 18:05:28 10° S 18:11:27 57° E 18:17:27 10° NNE
Aureole 3 Rocket 4.4 18:08:19 10° SW 18:12:17 45° WNW 18:17:44 10° N
Cosmos 2315 Rocket 4.0 18:09:33 10° SSE 18:15:30 51° E 18:21:28 10° NNE
CSL-04 Debris 4.2 18:10:06 10° SSE 18:15:33 82° WSW 18:21:04 10° NNW
S3M 3.9 18:09:53 10° S 18:16:00 87° W 18:22:14 10° N
Lacrosse 5 2.7 18:18:14 10° WNW 18:22:55 36° N 18:23:30 35° NNE
FALCON 9 DEB 4.2 18:19:41 10° WNW 18:22:07 42° NW 18:22:07 42° NW
YAOGAN 1 3.6 18:19:15 10° S 18:23:23 45° W 18:27:34 10° NNW
FALCON 9 DEB 4.4 18:21:17 10° W 18:23:30 38° WNW 18:23:30 38° WNW
ERBS 4.5 18:22:21 10° NW 18:24:02 20° NNW 18:24:02 20° NNW
Cosmos 2360 4.1 18:19:56 10° SSW 18:25:34 63° ESE 18:26:15 58° ENE
Cosmos 1812 Rocket 3.5 18:26:29 10° SSW 18:35:45 - N 18:30:36 76° SW
Cosmos 1455 2.8 18:27:58 10° SSW 18:31:14 52° WSW 18:31:14 52° WSW
CZ-2C R/B 4.2 18:27:56 10° S 18:33:31 49° W 18:38:59 10° NNW
Cosmos 1503 Rocket 4.5 18:29:17 10° NNW 18:34:25 59° WSW 18:37:11 27° S
Meteor 2-3 Rocket 4.1 18:30:07 10° N 18:34:44 48° NE 18:34:44 48° NE
Cosmos 2278 4.5 18:33:15 10° S 18:36:45 37° S 18:36:45 37° S
USA 307 3.6 18:37:13 10° WNW 18:40:52 49° WSW 18:40:52 49° WSW
Meteor 2-10 Rocket 4.4 18:40:09 10° SSW 18:45:16 48° WNW 18:50:13 10° N
USA 308 3.9 18:42:04 10° WNW 18:45:31 44° WSW 18:45:31 44° WSW
ATLAS 5 CENTAUR R/B 4.0 18:51:46 10° NNW 18:54:59 17° N 18:55:01 17° N
ARGOS 3.8 18:54:41 28° SSW 18:57:20 54° W 19:02:41 10° NNW
Cosmos 2369 3.9 18:56:49 10° SW 19:02:31 68° WNW 19:03:11 62° NNW
CZ-4 R/B 4.4 19:02:45 10° WSW 19:04:42 13° W 19:06:40 10° WNW
Ariane Rocket 3.9 19:07:51 44° NNW 19:07:51 44° NNW 19:11:19 10° NNW
H-2A R/B 3.6 19:01:21 10° SSW 19:06:17 35° W 19:11:17 10° NNW
Cosmos 2263 Rocket 2.9 19:13:10 10° NNW 19:17:16 49° NNW 19:17:16 49° NNW
SeaSat 1 3.9 19:26:15 33° W 19:26:15 33° W 19:30:21 10° NW
CZ-4C R/B 3.1 19:23:49 10° NW 19:29:36 57° N 19:29:36 57° N
Cosmos 1697 Rocket 3.9 19:25:31 10° WSW 19:30:46 39° NW 19:31:26 38° NW
NOSS 3-4 (A) 4.0 19:24:57 10° NW 19:31:39 69° WSW 19:31:39 69° WSW
NOSS 3-4 (C) 3.9 19:25:03 10° NW 19:31:43 69° WSW 19:31:43 69° WSW
USA 215 3.5 19:39:00 63° WNW 19:39:00 63° WNW 19:44:25 10° WNW
Cosmos 1980 Rocket 4.4 19:47:56 10° SW 19:49:11 17° WSW 19:49:11 17° WSW
ATLAS 2AS CENTAUR R/B 3.3 19:46:38 10° NW 19:52:43 55° WNW 19:52:43 55° WNW
Lacrosse 5 4.4 20:01:24 10° NW 20:02:41 18° NW 20:02:41 18° NW
